DELTA 1 DEB, 7836

Orbit data source: Space-Track

DELTA 1 DEB, 7836 is space debris in SSO originally from a launch on Sun, 23 Jul 1972 UTC launched from the Air Force Western Test Range (AFWTR). Debris objects in space refer to the collection of defunct objects orbiting the Earth. Examples of debris include non-operational satellites, rocket bodies, and fragments generated from explosions, collisions, or faulty payload assembly.

Loading next visibility...
Identifier
7836, 1972-058G
Orbit
SSO
Country
Flag of USUS
Related business
Manufacturer
Unknown
Mission
Spacecraft
Bus & Motor
Unknown
Mass
Unknown
Launch date (UTC)
1972-07-23 (54 years ago)
Launch vehicle
Unknown
Launch site
Air Force Western Test Range (AFWTR)
Object type
Payload
Rocket body
Debris
Shape & HBR
Unknown shape, 0.1 m
Radar Cross Section
Medium (>0.1 m² and <1 m²)

Expand to show TLE details & history
Last TLE update: 17 hours ago

TLE from 17 hours ago
0 DELTA 1 DEB
1 07836U 72058G   26149.93733552  .00000389  00000-0  19777-3 0  9999
2 07836  97.9676 329.7714 0322652 341.1993  17.7477 13.97007490636360
Epoch: 2026-05-29T22:29Z
TLE epoch observation values (Epoch: 2026-05-29T22:29:45.788Z)
Latitude
0.00004°
Longitude
104.87006°
Altitude
683.998 km
Speed
7.629 km/s
True Right ascension
21h 59m 05s
True Declination
0° 00' 00"
Sunlit
Object was in daylight at epoch
Visualization orbit readout
Latitude
Unknown
Longitude
Unknown
Altitude
Unknown
Speed
Unknown
Apparent Right ascension
Unknown
Apparent Declination
Unknown
Sunlit
N/A
Visualization observer readout
Local Sidereal Time
00:44:25
Azimuth
Unknown
Elevation
Unknown
Doppler factor
Unknown
Orbital elements
Apogee altitude
1,136.201 km
Perigee altitude
666.454 km
Semi-major axis
7,279.464 km
Eccentricity
0.03227
Inclination
97.9676°
RAAN
329.7714°
Arg. of periapsis
341.1993°
True anomaly
18.9196°
Mean anomaly
17.7477°
Eccentric anomaly
18.32906°
Mean motion
3.49457 °/min
Orbital period
103.02 mins
BSTAR
0.00019777
Loading maneuver chart data...
Computing Atmospheric mass density...
Loading historical data...
Loading historical data...
Loading historical data...
Loading historical data...
Loading historical data...
Loading historical data...
Loading historical data...

Documentation

Showing up to 5 results
|